Regional Weather Roundup
Issued by NWS Charleston, WV

Home | Current Version | Previous Version | Text Only | Print | Product List | Glossary On
Versions: 1 2 3 4 5 6 7 8 9 10 11 12 13 14 15 16 17 18 19 20 21 22 23 24 25 26 27 28 29 30 31 32 33 34 35 36 37 38 39 40 41 42 43 44 45 46 47 48 49 50
000
ASUS41 KRLX 020610
RWRRLX
West Virginia Regional Weather Roundup
National Weather Service Charleston WV
200 AM EDT SUN AUG 02 2015

Note: "fair" indicates few or no clouds below 12,000 feet with no
significant weather and/or obstructions to visibility.

WVZ003-020700-
Northern Panhandle of West Virginia

CITY           SKY/WX    TMP DP  RH WIND       PRES   REMARKS
WHEELING       PTCLDY    65  57  75 S5        29.98R
$$

WVZ009-020700-
Northwest West Virginia

CITY           SKY/WX    TMP DP  RH WIND       PRES   REMARKS
PARKERSBURG    PTCLDY    61  58  90 CALM      30.00F
$$

WVZ006-020700-
Western West Virginia

CITY           SKY/WX    TMP DP  RH WIND       PRES   REMARKS
HUNTINGTON     PTCLDY    62  60  93 CALM      29.99S
$$

WVZ015-020700-
West Central West Virginia

CITY           SKY/WX    TMP DP  RH WIND       PRES   REMARKS
CHARLESTON     PTCLDY    63  60  90 CALM      30.00R
$$

WVZ022-031-020700-
North Central West Virginia

CITY           SKY/WX    TMP DP  RH WIND       PRES   REMARKS
CLARKSBURG     CLEAR     61  58  90 CALM      29.99F
MORGANTOWN     CLEAR     66  55  67 CALM      30.00S
$$

WVZ025-035-042-045-020700-
Southern West Virginia

CITY           SKY/WX    TMP DP  RH WIND       PRES   REMARKS
BECKLEY        CLEAR     60  55  83 CALM      30.07S
LOGAN            N/A     64  61  88 CALM      29.99S
BLUEFIELD      CLEAR     64  57  78 SW3       30.08F
LEWISBURG      CLEAR     57  54  89 CALM      30.05S
$$

WVZ047-020700-
Northern Mountains of West Virginia

CITY           SKY/WX    TMP DP  RH WIND       PRES   REMARKS
ELKINS         CLEAR     56  53  90 CALM      30.05F
$$

WVZ052-020700-
Eastern Panhandle of West Virginia

CITY           SKY/WX    TMP DP  RH WIND       PRES   REMARKS
MARTINSBURG    CLEAR     63  56  78 W6        29.94S
PETERSBURG     CLEAR    N/A N/A N/A CALM      29.98F
$$


USA.gov is the U.S. government's official web portal to all federal, state and local government web resources and services.